STARLINK-11686

Satellite information

Favourite Embed

Satellite Type and Status

PAYLOADIN ORBIT

Key statistics

Satellite STARLINK-11686 at a glance.

Uptime

28

Days in orbit

Revolutions

≈ 15.8

Per day

Orbit

LEO

Low Earth Orbit

Inclination

43.0

Latest

Satellite identification and parameters

Extended collection of information and parameters for STARLINK-11686.

Object identification

Identified? True

Debris? False

Object name: STARLINK-11686

International designator: 2025-119A

Object number (NORAD): 64233

Object ID (CCSDS): 64233

Country: UNITED STATES OF AMERICA (US)

Current information (Y/N): Y

RCS size: LARGE

Orbital parameters

Period: 91.257 minutes

Inclination: 42.9968 deg

SMA: 6714.342 km

Apoapsis: 337.139 km

Periapsis: 335.274 km

RAAN: 296.8728 deg

Eccentricy: 0.0001389

Argument of periapsis: 257.253 deg

Mean anomaly: 102.8185 deg

Mean motion: 15.77965888 rev/day

Mean motion (dot): 0.00262051 rev/day2

B* drag term: 0.0014557 1/REarth

Two-line elements (TLE)

Creation date: June 30, 2025, 6:46 a.m.

Reference frame: TEME

Reference center: EARTH

Epoch: June 29, 2025, 7:11 p.m. UTC

TLE line 0: 0 STARLINK-11686

TLE line 1: 1 64233U 25119A 25180.79989192 .00262051 00000-0 14557-2 0 9996

TLE line 2: 2 64233 42.9968 296.8728 0001389 257.2530 102.8185 15.77965888 5425

Live tracking on map

Real-time ground track for satellite STARLINK-11686.

In-orbit conjunctions

There are no conjunctions computed for STARLINK-11686, at the moment. Check back to stay up to date, as we update our databases every day.

Go to all conjunctions

Associated space launch

A batch of 23 satellites for the Starlink mega-constellation - SpaceX's project for space-based Internet communication system.

STARLINK-11686 was lifted into orbit during the mission ‘Falcon 9 Block 5 | Starlink Group 12-19’, on board a Falcon 9 space rocket.

The launch took place on June 3, 2025, 4:43 a.m. from Space Launch Complex 40.

For more information about the launch, click the button.

Launch to space Falcon 9 Block 5 | Starlink Group 12-19
Falcon 9 Block 5 | Starlink Group 12-19

Agency: SpaceX

Status: Launch Successful

Launch date: June 3, 2025, 4:43 a.m. UTC

Rocket: Falcon 9

Launch pad: Space Launch Complex 40

Location: Cape Canaveral SFS, FL, USA

...

Latest news about this satellite

News about space launch
Launch Roundup: Falcon 9 to launch crewed mission, Rocket Lab to launch 65th Electron

SpaceX continues to dominate the launch manifest with five missions this week, including a crewed… The post Launch Roundup: Falcon 9 to launch crewed mission, Rocket Lab to launch 65th Electron appeared first on NASASpaceFlight.com.

News about space launch
Live coverage: SpaceX reschedules Starlink delivery mission for midnight hour Tuesday

The mission comes after a Monday morning launch attempt was scrubbed. SpaceX is targeting liftoff from pad 40 at 12:42 a.m. EDT (0442 UTC) on June 3.

News about space launch
Live coverage: SpaceX to launch 23 Starlink satellites on Falcon 9 rocket from Cape Canaveral

The mission comes as solar activity triggered an alert from the National Oceanic and Atmospheric Administration for a severe geomagnetic storm alert, which could impact the Starlink satellites. SpaceX is targeting liftoff from pad 40 at 1:01 a.m. EDT (050...


Newsletter sign-up

Weekly statistics, charts and insights to help you stay on top of the space industry.